Time,TemperatureF,DewpointF,PressureIn,WindDirection,WindDirectionDegrees,WindSpeedMPH,WindSpeedGustMPH,Humidity,HourlyPrecipIn,Conditions,Clouds,dailyrainin,SolarRadiationWatts/m^2,SoftwareType,DateUTC
2013-02-10 00:01:00,69.0,58.0,-100.00,SSW,202,4.0,21.0,69,0.00,,,0.01,0.000000,,2013-02-10 10:01:00,
2013-02-10 00:11:00,69.0,58.0,-100.00,SSW,202,4.0,21.0,69,0.00,,,0.01,0.000000,,2013-02-10 10:11:00,
2013-02-10 00:21:00,69.0,58.0,-100.00,SSW,202,4.0,21.0,69,0.00,,,0.01,0.000000,,2013-02-10 10:21:00,
2013-02-10 00:31:00,69.0,58.0,-100.00,SSW,202,4.0,21.0,69,0.00,,,0.01,0.000000,,2013-02-10 10:31:00,
2013-02-10 01:01:00,67.0,57.0,-100.00,South,181,6.0,17.0,70,0.00,,,0.00,0.000000,,2013-02-10 11:01:00,
2013-02-10 01:11:00,67.0,57.0,-100.00,South,181,6.0,17.0,70,0.00,,,0.00,0.000000,,2013-02-10 11:11:00,
2013-02-10 01:21:00,67.0,57.0,-100.00,South,181,6.0,17.0,70,0.00,,,0.00,0.000000,,2013-02-10 11:21:00,
2013-02-10 01:31:00,67.0,57.0,-100.00,South,181,6.0,17.0,70,0.00,,,0.00,0.000000,,2013-02-10 11:31:00,
2013-02-10 02:01:00,68.0,59.0,-100.00,SW,229,7.0,16.0,72,0.00,,,0.00,0.000000,,2013-02-10 12:01:00,
2013-02-10 02:12:00,68.0,59.0,-100.00,SW,229,7.0,16.0,72,0.00,,,0.00,0.000000,,2013-02-10 12:12:00,
2013-02-10 02:21:00,68.0,59.0,-100.00,SW,229,7.0,16.0,72,0.00,,,0.00,0.000000,,2013-02-10 12:21:00,
2013-02-10 02:32:00,68.0,59.0,-100.00,SW,229,7.0,16.0,72,0.00,,,0.00,0.000000,,2013-02-10 12:32:00,
2013-02-10 05:01:00,68.0,57.0,-100.00,NE,42,11.0,37.0,68,-99.99,,,0.00,0.000000,,2013-02-10 15:01:00,
2013-02-10 05:11:00,68.0,57.0,-100.00,NE,42,11.0,37.0,68,-99.99,,,0.00,0.000000,,2013-02-10 15:11:00,
2013-02-10 05:21:00,68.0,57.0,-100.00,NE,42,11.0,37.0,68,-99.99,,,0.00,0.000000,,2013-02-10 15:21:00,
2013-02-10 05:31:00,68.0,57.0,-100.00,NE,42,11.0,37.0,68,-99.99,,,0.00,0.000000,,2013-02-10 15:31:00,
2013-02-10 06:01:00,69.0,57.0,-100.00,NE,55,12.0,29.0,65,0.00,,,0.00,0.000000,,2013-02-10 16:01:00,
2013-02-10 06:11:00,69.0,57.0,-100.00,NE,55,12.0,29.0,65,0.00,,,0.00,0.000000,,2013-02-10 16:11:00,
2013-02-10 06:21:00,69.0,57.0,-100.00,NE,55,12.0,29.0,65,0.00,,,0.00,0.000000,,2013-02-10 16:21:00,
2013-02-10 06:31:00,69.0,57.0,-100.00,NE,55,12.0,29.0,65,0.00,,,0.00,0.000000,,2013-02-10 16:31:00,
2013-02-10 07:01:00,68.0,56.0,-100.00,ENE,60,13.0,34.0,66,0.00,,,-99.99,0.000000,,2013-02-10 17:01:00,
2013-02-10 07:11:00,68.0,56.0,-100.00,ENE,60,13.0,34.0,66,0.00,,,-99.99,0.000000,,2013-02-10 17:11:00,
2013-02-10 07:21:00,68.0,56.0,-100.00,ENE,60,13.0,34.0,66,0.00,,,-99.99,0.000000,,2013-02-10 17:21:00,
2013-02-10 07:31:00,68.0,56.0,-100.00,ENE,60,13.0,34.0,66,0.00,,,-99.99,0.000000,,2013-02-10 17:31:00,
2013-02-10 08:02:00,68.0,58.0,-100.00,NE,43,11.0,39.0,70,0.00,,,0.00,0.000000,,2013-02-10 18:02:00,
2013-02-10 08:11:00,68.0,58.0,-100.00,NE,43,11.0,39.0,70,0.00,,,0.00,0.000000,,2013-02-10 18:11:00,
2013-02-10 08:21:00,68.0,58.0,-100.00,NE,43,11.0,39.0,70,0.00,,,0.00,0.000000,,2013-02-10 18:21:00,
2013-02-10 08:31:00,68.0,58.0,-100.00,NE,43,11.0,39.0,70,0.00,,,0.00,0.000000,,2013-02-10 18:31:00,
2013-02-10 09:01:00,70.0,59.0,-100.00,NNW,348,9.0,27.0,67,0.00,,,0.00,6.000000,,2013-02-10 19:01:00,
2013-02-10 09:11:00,70.0,59.0,-100.00,NNW,348,9.0,27.0,67,0.00,,,0.00,6.000000,,2013-02-10 19:11:00,
2013-02-10 09:21:00,70.0,59.0,-100.00,NNW,348,9.0,27.0,67,0.00,,,0.00,6.000000,,2013-02-10 19:21:00,
2013-02-10 09:31:00,70.0,59.0,-100.00,NNW,348,9.0,27.0,67,0.00,,,0.00,6.000000,,2013-02-10 19:31:00,
2013-02-10 09:52:00,74.0,58.0,-100.00,NE,44,13.0,33.0,58,0.00,,,0.00,100.000000,,2013-02-10 19:52:00,
2013-02-10 10:02:00,74.0,58.0,-100.00,NE,44,13.0,33.0,58,0.00,,,0.00,100.000000,,2013-02-10 20:02:00,
2013-02-10 10:11:00,74.0,58.0,-100.00,NE,44,13.0,33.0,58,0.00,,,0.00,100.000000,,2013-02-10 20:11:00,
2013-02-10 10:21:00,74.0,58.0,-100.00,NE,44,13.0,33.0,58,0.00,,,0.00,100.000000,,2013-02-10 20:21:00,
2013-02-10 10:31:00,74.0,58.0,-100.00,NE,44,13.0,33.0,58,0.00,,,0.00,100.000000,,2013-02-10 20:31:00,
2013-02-10 11:02:00,72.0,62.0,-100.00,NW,310,7.0,30.0,72,0.00,,,0.00,539.000000,,2013-02-10 21:02:00,
2013-02-10 11:11:00,72.0,62.0,-100.00,NW,310,7.0,30.0,72,0.00,,,0.00,539.000000,,2013-02-10 21:11:00,
2013-02-10 11:21:00,72.0,62.0,-100.00,NW,310,7.0,30.0,72,0.00,,,0.00,539.000000,,2013-02-10 21:21:00,
2013-02-10 11:31:00,72.0,62.0,-100.00,NW,310,7.0,30.0,72,0.00,,,0.00,539.000000,,2013-02-10 21:31:00,
2013-02-10 12:01:00,72.0,63.0,-100.00,WSW,258,5.0,40.0,74,0.00,,,0.00,451.000000,,2013-02-10 22:01:00,
2013-02-10 12:11:00,72.0,63.0,-100.00,WSW,258,5.0,40.0,74,0.00,,,0.00,451.000000,,2013-02-10 22:11:00,
2013-02-10 12:21:00,72.0,63.0,-100.00,WSW,258,5.0,40.0,74,0.00,,,0.00,451.000000,,2013-02-10 22:21:00,
2013-02-10 12:31:00,72.0,63.0,-100.00,WSW,258,5.0,40.0,74,0.00,,,0.00,451.000000,,2013-02-10 22:31:00,
2013-02-10 13:02:00,70.0,63.0,-100.00,West,269,7.0,19.0,79,0.00,,,0.00,443.000000,,2013-02-10 23:02:00,
2013-02-10 13:11:00,70.0,63.0,-100.00,West,269,7.0,19.0,79,0.00,,,0.00,443.000000,,2013-02-10 23:11:00,
2013-02-10 13:21:00,70.0,63.0,-100.00,West,269,7.0,19.0,79,0.00,,,0.00,443.000000,,2013-02-10 23:21:00,
2013-02-10 13:31:00,70.0,63.0,-100.00,West,269,7.0,19.0,79,0.00,,,0.00,443.000000,,2013-02-10 23:31:00,
2013-02-10 14:01:00,70.0,65.0,-100.00,SW,221,7.0,15.0,84,0.03,,,0.03,770.000000,,2013-02-11 00:01:00,
2013-02-10 14:11:00,70.0,65.0,-100.00,SW,221,7.0,15.0,84,0.03,,,0.03,770.000000,,2013-02-11 00:11:00,
2013-02-10 14:21:00,70.0,65.0,-100.00,SW,221,7.0,15.0,84,0.03,,,0.03,770.000000,,2013-02-11 00:21:00,
2013-02-10 14:31:00,70.0,65.0,-100.00,SW,221,7.0,15.0,84,0.03,,,0.03,770.000000,,2013-02-11 00:31:00,
2013-02-10 15:01:00,70.0,62.0,-100.00,SE,137,4.0,15.0,75,0.00,,,0.03,404.000000,,2013-02-11 01:01:00,
2013-02-10 15:11:00,70.0,62.0,-100.00,SE,137,4.0,15.0,75,0.00,,,0.03,404.000000,,2013-02-11 01:11:00,
2013-02-10 15:21:00,70.0,62.0,-100.00,SE,137,4.0,15.0,75,0.00,,,0.03,404.000000,,2013-02-11 01:21:00,
2013-02-10 15:31:00,70.0,62.0,-100.00,SE,137,4.0,15.0,75,0.00,,,0.03,404.000000,,2013-02-11 01:31:00,
2013-02-10 16:01:00,72.0,63.0,-100.00,NNE,27,4.0,18.0,73,0.00,,,0.03,359.000000,,2013-02-11 02:01:00,
2013-02-10 16:11:00,72.0,63.0,-100.00,NNE,27,4.0,18.0,73,0.00,,,0.03,359.000000,,2013-02-11 02:11:00,
2013-02-10 16:21:00,72.0,63.0,-100.00,NNE,27,4.0,18.0,73,0.00,,,0.03,359.000000,,2013-02-11 02:21:00,
2013-02-10 16:31:00,72.0,63.0,-100.00,NNE,27,4.0,18.0,73,0.00,,,0.03,359.000000,,2013-02-11 02:31:00,
2013-02-10 16:52:00,73.0,62.0,-100.00,South,191,3.0,17.0,69,0.00,,,0.03,213.000000,,2013-02-11 02:52:00,
2013-02-10 17:01:00,73.0,62.0,-100.00,South,191,3.0,17.0,69,0.00,,,0.03,213.000000,,2013-02-11 03:01:00,
2013-02-10 17:11:00,73.0,62.0,-100.00,South,191,3.0,17.0,69,0.00,,,0.03,213.000000,,2013-02-11 03:11:00,
2013-02-10 17:21:00,73.0,62.0,-100.00,South,191,3.0,17.0,69,0.00,,,0.03,213.000000,,2013-02-11 03:21:00,
2013-02-10 17:31:00,73.0,62.0,-100.00,South,191,3.0,17.0,69,0.00,,,0.03,213.000000,,2013-02-11 03:31:00,
2013-02-10 17:52:00,72.0,62.0,-100.00,West,280,4.0,15.0,70,0.00,,,0.03,209.000000,,2013-02-11 03:52:00,
2013-02-10 18:01:00,72.0,62.0,-100.00,West,280,4.0,15.0,70,0.00,,,0.03,209.000000,,2013-02-11 04:01:00,
2013-02-10 18:11:00,72.0,62.0,-100.00,West,280,4.0,15.0,70,0.00,,,0.03,209.000000,,2013-02-11 04:11:00,
2013-02-10 18:21:00,72.0,62.0,-100.00,West,280,4.0,15.0,70,0.00,,,0.03,209.000000,,2013-02-11 04:21:00,
2013-02-10 18:31:00,72.0,62.0,-100.00,West,280,4.0,15.0,70,0.00,,,0.03,209.000000,,2013-02-11 04:31:00,
2013-02-10 18:52:00,70.0,62.0,-100.00,WSW,249,5.0,17.0,75,0.01,,,0.04,108.000000,,2013-02-11 04:52:00,
2013-02-10 19:01:00,70.0,62.0,-100.00,WSW,249,5.0,17.0,75,0.01,,,0.04,108.000000,,2013-02-11 05:01:00,
2013-02-10 19:11:00,70.0,62.0,-100.00,WSW,249,5.0,17.0,75,0.01,,,0.04,108.000000,,2013-02-11 05:11:00,
2013-02-10 19:22:00,70.0,62.0,-100.00,WSW,249,5.0,17.0,75,0.01,,,0.04,108.000000,,2013-02-11 05:22:00,
2013-02-10 19:31:00,70.0,62.0,-100.00,WSW,249,5.0,17.0,75,0.01,,,0.04,108.000000,,2013-02-11 05:31:00,
2013-02-10 20:01:00,69.0,62.0,-100.00,NW,305,4.0,20.0,78,0.00,,,0.04,24.000000,,2013-02-11 06:01:00,
2013-02-10 20:11:00,69.0,62.0,-100.00,NW,305,4.0,20.0,78,0.00,,,0.04,24.000000,,2013-02-11 06:11:00,
2013-02-10 20:21:00,69.0,62.0,-100.00,NW,305,4.0,20.0,78,0.00,,,0.04,24.000000,,2013-02-11 06:21:00,
2013-02-10 20:31:00,69.0,62.0,-100.00,NW,305,4.0,20.0,78,0.00,,,0.04,24.000000,,2013-02-11 06:31:00,
2013-02-10 20:52:00,68.0,59.0,-100.00,West,266,9.0,25.0,74,0.01,,,0.05,0.000000,,2013-02-11 06:52:00,
2013-02-10 21:01:00,68.0,59.0,-100.00,West,266,9.0,25.0,74,0.01,,,0.05,0.000000,,2013-02-11 07:01:00,
2013-02-10 21:11:00,68.0,59.0,-100.00,West,266,9.0,25.0,74,0.01,,,0.05,0.000000,,2013-02-11 07:11:00,
2013-02-10 21:21:00,68.0,59.0,-100.00,West,266,9.0,25.0,74,0.01,,,0.05,0.000000,,2013-02-11 07:21:00,
2013-02-10 21:31:00,68.0,59.0,-100.00,West,266,9.0,25.0,74,0.01,,,0.05,0.000000,,2013-02-11 07:31:00,
2013-02-10 22:01:00,70.0,59.0,-100.00,WNW,286,9.0,31.0,68,0.00,,,0.05,0.000000,,2013-02-11 08:01:00,
2013-02-10 22:11:00,70.0,59.0,-100.00,WNW,286,9.0,31.0,68,0.00,,,0.05,0.000000,,2013-02-11 08:11:00,
2013-02-10 22:21:00,70.0,59.0,-100.00,WNW,286,9.0,31.0,68,0.00,,,0.05,0.000000,,2013-02-11 08:21:00,
2013-02-10 22:31:00,70.0,59.0,-100.00,WNW,286,9.0,31.0,68,0.00,,,0.05,0.000000,,2013-02-11 08:31:00,
2013-02-10 23:01:00,70.0,59.0,-100.00,West,279,6.0,21.0,69,0.00,,,0.05,0.000000,,2013-02-11 09:01:00,
2013-02-10 23:12:00,70.0,59.0,-100.00,West,279,6.0,21.0,69,0.00,,,0.05,0.000000,,2013-02-11 09:12:00,
2013-02-10 23:21:00,70.0,59.0,-100.00,West,279,6.0,21.0,69,0.00,,,0.05,0.000000,,2013-02-11 09:21:00,
2013-02-10 23:31:00,70.0,59.0,-100.00,West,279,6.0,21.0,69,0.00,,,0.05,0.000000,,2013-02-11 09:31:00,
2013-02-10 23:52:00,70.0,60.0,-100.00,WNW,287,5.0,16.0,71,0.00,,,0.05,0.000000,,2013-02-11 09:52:00,